Location: Brantford
(43.1330°N, 80.2670°W)
Time: 15:50:19
(UTC-05:00)

Tiros 1 despin weight - Pass Details

Date: 23 November 2019
Orbit: 594 x 642 km, 48.2° (Epoch: 05 December)

Event Time Altitude Azimuth Distance (km) Brightness Sun altitude
Rises 18:32:55 0° 287° (WNW) 2,848 ? -18.3°
Reaches altitude 10° 18:35:37 10° 272° (W) 1,949 ? -18.8°
Maximum altitude 18:39:00 21° 223° (SW) 1,371 ? -19.4°
Drops below altitude 10° 18:42:23 10° 174° (S) 1,963 ? -20.0°
Sets 18:45:08 0° 158° (SSE) 2,874 ? -20.5°
